GW1572 Weather Reports


Display with metric or nautical units.
time (UTC)temp
F
wind
direction
speed
MPH
gust
MPH
rain 1hr
in
rain 24hr
in
rain mn
in
humidity
%
barometer
mb
20260503174820 63 244 0.0 0.0 0.00 0.00 0.00 40 1011.1
20260503174213 60 327 2.0 3.0 0.00 0.00 0.00 43 1010.8
20260503173628 60 306 1.0 2.0 0.00 0.00 0.00 43 1011.1
20260503173035 60 282 1.0 1.0 0.00 0.00 0.00 36 1011.1
20260503172413 60 226 2.0 2.0 0.00 0.00 0.00 38 1011.1
20260503171814 59 342 2.0 3.0 0.00 0.00 0.00 46 1011.1
20260503171254 60 266 6.0 8.0 0.00 0.00 0.00 46 1011.5
20260503150630 53 256 3.0 3.0 0.00 0.00 0.00 49 1012.5
20260503130620 39 312 0.0 0.0 0.00 0.00 0.00 99 1012.8
20260503110645 30 286 0.0 0.0 0.00 0.00 0.00 99 1011.8
20260503081246 32 273 0.0 0.0 0.00 0.00 0.00 98 1010.8
20260503072411 32 270 0.0 0.0 0.00 0.00 0.00 98 1010.4
20260503071838 32 279 0.0 0.0 0.00 0.00 0.00 98 1010.4
20260503071227 32 273 0.0 0.0 0.00 0.00 0.00 98 1010.4
20260503070623 32 276 0.0 0.0 0.00 0.00 0.00 97 1010.4
20260503054237 34 266 0.0 0.0 0.00 0.00 0.00 95 1010.4
20260503053623 34 273 0.0 0.0 0.00 0.00 0.00 95 1010.4
20260503053051 35 273 0.0 0.0 0.00 0.00 0.00 95 1010.4
20260503052424 35 276 0.0 0.0 0.00 0.00 0.00 95 1010.4
20260503051854 35 281 0.0 0.0 0.00 0.00 0.00 94 1010.4
20260503051244 35 276 0.0 0.0 0.00 0.00 0.00 94 1010.4
20260503050649 35 275 0.0 0.0 0.00 0.00 0.00 94 1010.4
20260503050053 35 268 0.0 0.0 0.00 0.00 0.00 94 1010.4
20260503045418 36 268 0.0 0.0 0.00 0.00 0.00 93 1010.4
20260503044845 36 268 0.0 0.0 0.00 0.00 0.00 93 1010.4
20260503044242 36 273 0.0 0.0 0.00 0.00 0.00 93 1010.4
20260503043639 36 281 0.0 0.0 0.00 0.00 0.00 92 1010.1
20260503043016 36 287 0.0 0.0 0.00 0.00 0.00 92 1010.4
20260503042443 36 232 0.0 0.0 0.00 0.00 0.00 91 1010.1
20260503041823 36 278 0.0 0.0 0.00 0.00 0.00 91 1010.4
20260503040623 37 276 0.0 0.0 0.00 0.00 0.00 90 1010.4
20260503040047 37 285 0.0 0.0 0.00 0.00 0.00 89 1010.1
20260503035451 38 287 0.0 0.0 0.00 0.00 0.00 88 1010.4
20260503034851 38 274 0.0 0.0 0.00 0.00 0.00 87 1010.1
20260503034216 38 264 0.0 0.0 0.00 0.00 0.00 87 1010.1
20260503033638 38 268 0.0 0.0 0.00 0.00 0.00 86 1010.1
20260503032419 39 259 0.0 0.0 0.00 0.00 0.00 84 1010.1
20260503031839 39 257 0.0 0.0 0.00 0.00 0.00 84 1010.1
20260503031244 39 252 0.0 0.0 0.00 0.00 0.00 84 1009.8
20260503030642 40 254 0.0 0.0 0.00 0.00 0.00 84 1010.1
20260503030024 40 254 0.0 0.0 0.00 0.00 0.00 83 1010.1
20260503025424 40 260 0.0 0.0 0.00 0.00 0.00 82 1010.1
20260503024829 40 252 0.0 0.0 0.00 0.00 0.00 82 1009.8
20260503024233 41 253 0.0 0.0 0.00 0.00 0.00 81 1009.8
20260503023618 41 241 0.0 0.0 0.00 0.00 0.00 80 1009.8
20260503023036 41 246 0.0 0.0 0.00 0.00 0.00 80 1009.8
20260503022451 41 254 0.0 0.0 0.00 0.00 0.00 80 1009.8
20260503021851 42 248 0.0 0.0 0.00 0.00 0.00 78 1009.8
20260503021241 42 250 0.0 0.0 0.00 0.00 0.00 78 1009.4
20260503020644 42 265 0.0 0.0 0.00 0.00 0.00 78 1009.4
20260503020048 42 255 0.0 0.0 0.00 0.00 0.00 77 1009.4
20260503014817 43 253 0.0 0.0 0.00 0.00 0.00 76 1009.1
20260503014252 43 255 0.0 0.0 0.00 0.00 0.00 76 1009.1
20260503013626 43 249 0.0 0.0 0.00 0.00 0.00 76 1009.1
20260503013014 43 252 0.0 0.0 0.00 0.00 0.00 75 1009.1
20260503011811 44 263 0.0 0.0 0.00 0.00 0.00 73 1009.1
20260503011231 44 258 0.0 0.0 0.00 0.00 0.00 73 1009.1
20260503010623 44 247 0.0 0.0 0.00 0.00 0.00 72 1008.8
20260503010028 45 257 0.0 0.0 0.00 0.00 0.00 72 1008.8
20260503005413 45 262 0.0 0.0 0.00 0.00 0.00 71 1008.8
20260503004843 46 292 0.0 0.0 0.00 0.00 0.00 68 1008.8
20260503004211 47 303 0.0 0.0 0.00 0.00 0.00 66 1008.8
20260503003641 48 263 0.0 0.0 0.00 0.00 0.00 65 1008.4
20260503003018 49 263 0.0 0.0 0.00 0.00 0.00 61 1008.4
20260503001815 50 310 0.0 0.0 0.00 0.00 0.00 58 1008.1
20260503001232 50 261 0.0 0.0 0.00 0.00 0.00 56 1008.1
20260503000048 52 175 3.0 4.0 0.00 0.00 0.00 47 1008.1
20260502235410 53 229 4.0 4.0 0.00 0.00 0.00 47 1008.1
20260502234841 53 243 3.0 3.0 0.00 0.00 0.00 46 1008.1
20260502234245 53 237 4.0 6.0 0.00 0.00 0.00 47 1008.1
20260502233641 54 290 4.0 4.0 0.00 0.00 0.00 47 1007.7
20260502232429 54 218 6.0 7.0 0.00 0.00 0.00 45 1007.7
20260502231840 54 123 4.0 6.0 0.00 0.00 0.00 45 1007.7
20260502231212 54 201 4.0 6.0 0.00 0.00 0.00 45 1007.4
20260502230630 55 241 2.0 2.0 0.00 0.00 0.00 45 1007.4
20260502230040 55 4 7.0 11.0 0.00 0.00 0.00 43 1007.4
20260502225434 56 248 4.0 6.0 0.00 0.00 0.00 44 1007.4
20260502224832 56 227 2.0 3.0 0.00 0.00 0.00 45 1007.4
20260502224227 55 220 5.0 6.0 0.00 0.00 0.00 42 1007.4
20260502223035 55 183 5.0 6.0 0.00 0.00 0.00 44 1007.1
20260502222421 55 205 1.0 2.0 0.00 0.00 0.00 44 1007.4
20260502221839 56 231 2.0 2.0 0.00 0.00 0.00 45 1007.4
20260502221254 56 211 5.0 7.0 0.00 0.00 0.00 44 1007.1
20260502220621 54 303 3.0 3.0 0.00 0.00 0.00 47 1007.1
20260502220030 55 268 3.0 3.0 0.00 0.00 0.00 47 1007.1
20260502215411 56 256 8.0 10.0 0.00 0.00 0.00 45 1007.1
20260502214823 56 215 5.0 8.0 0.00 0.00 0.00 46 1007.1
20260502213651 55 309 5.0 7.0 0.00 0.00 0.00 47 1006.7
20260502213041 57 219 4.0 4.0 0.00 0.00 0.00 44 1007.1
20260502212448 57 264 3.0 4.0 0.00 0.00 0.00 50 1007.1
20260502211814 58 283 5.0 6.0 0.00 0.00 0.00 44 1006.7
20260502211238 59 246 3.0 6.0 0.00 0.00 0.00 46 1006.7
20260502210627 58 281 1.0 2.0 0.00 0.00 0.00 41 1006.7
20260502210034 57 301 5.0 7.0 0.00 0.00 0.00 43 1007.1
20260502205414 58 270 5.0 6.0 0.00 0.00 0.00 45 1007.1
20260502204235 56 220 6.0 7.0 0.00 0.00 0.00 45 1007.1
20260502203612 59 256 4.0 4.0 0.00 0.00 0.00 46 1007.1
20260502203052 56 266 8.0 9.0 0.00 0.00 0.00 46 1007.1
20260502202443 54 215 6.0 8.0 0.00 0.00 0.00 47 1007.1
20260502201845 55 276 8.0 9.0 0.00 0.00 0.00 47 1007.1
20260502201211 57 273 4.0 6.0 0.00 0.00 0.00 48 1007.1
20260502200650 55 259 4.0 4.0 0.00 0.00 0.00 48 1007.1
20260502200039 55 273 5.0 7.0 0.00 0.00 0.00 47 1007.1
20260502195414 55 271 4.0 4.0 0.00 0.00 0.00 50 1007.1
20260502194838 57 294 5.0 6.0 0.00 0.00 0.00 48 1007.1
20260502194248 55 284 5.0 7.0 0.00 0.00 0.00 51 1007.4
20260502193634 54 258 6.0 7.0 0.00 0.00 0.00 48 1007.4
20260502193038 54 209 5.0 6.0 0.00 0.00 0.00 48 1007.7
20260502192426 57 243 4.0 4.0 0.00 0.00 0.00 47 1007.4
20260502191852 56 297 4.0 6.0 0.00 0.00 0.00 51 1007.4
20260502190615 55 276 5.0 7.0 0.00 0.00 0.00 50 1007.7
20260502190018 55 254 4.0 6.0 0.00 0.00 0.00 47 1007.7
20260502185437 54 266 8.0 10.0 0.00 0.00 0.00 48 1007.7
20260502184255 56 283 4.0 6.0 0.00 0.00 0.00 52 1007.7
20260502183654 55 226 2.0 2.0 0.00 0.00 0.00 54 1007.7
20260502183016 55 225 7.0 9.0 0.00 0.00 0.00 50 1007.7
20260502182440 55 203 4.0 6.0 0.00 0.00 0.00 48 1007.7
20260502181833 56 235 3.0 4.0 0.00 0.00 0.00 48 1007.7
20260502181254 55 239 3.0 4.0 0.00 0.00 0.00 50 1008.1
20260502180621 55 246 3.0 6.0 0.00 0.00 0.00 54 1008.1